Presure
127 85 83 104 128 97 124 104 128 135 120 112 90 119 133 136 142 128 132 123 140 150 125 142 117 137 139 133 139 113 143 129 116 130 134 134 117 126 126 125 126 136 113
79 82 84 116 137 125 91 100 143 85 148 150 125 93 136 124 127 141 138 114 132 152 134 127 134 143 135 122 128 132 133 78 125 131 132 128 121 141 99 119 133 136 131
158 93 152 143 122 130 131 115 123 157 88 131 126 124 142 123 137 139 142 143 126 115 135 132 134 128 126 125 127 139 134 137 140 142 129 123 110 122 130 132 110 123 133
143 147 142 144 128 133 129 132 128 122 125 109 124 139 132 127 131 131 118 137 136 136 125 124 147 134 135 127 131 126 124 126 118 123 117 132 110 126 113 121 111 138 132
144 154 151 142 132 124 126 140 119 134 129 119 117 119 128 139 132 148 140 140 96 139 129 146 127 133 147 134 126 135 127 125 120 141 141 130 124 133 123 134 141 135 129
147 137 148 136 142 147 134 130 128 141 134 133 144 94 121 126 108 153 136 145 134 138 90 127 142 136 125 136 136 126 128 129 128 131 133 125 125 130 134 130 146 127 128
131 151 150 149 136 147 130 137 130 132 128 135 132 125 127 123 110 156 141 122 154 138 145 118 121 148 144 135 134 132 144 137 131 138 122 123 133 126 125 128 128 131 129
140 134 124 119 149 156 131 153 145 133 134 129 133 119 138 122 117 122 146 138 131 153 142 125 149 132 129 142 148 150 127 139 149 144 144 141 149 141 142 136 132 132 117
141 153 136 140 121 152 140 154 142 115 121 134 135 129 131 125 116 133 118 128 134 130 138 121 122 125 130 162 143 143 138 131 136 136 119 135 117 120 133 141 147 143 138
151 131 143 127 118 141 150 141 101 103 151 141 142 134 135 130 124 139 119 111 123 119 130 131 126 152 137 158 130 134 160 107 103 123 142 142 142 147 150 144 153 145 142
168 153 171 157 132 134 151 146 133 110 160 141 151 136 116 137 139 134 134 134 131 125 119 125 119 114 121 120 141 141 125 112 122 105 121 115 115 119 122 142 141 150 158
147 144 150 164 137 152 150 141 134 163 149 136 131 144 148 150 143 123 140 137 143 138 138 134 132 111 126 126 116 109 124 137 139 135 136 117 124 143 144 149 115 119 129
170 162 127 152 148 133 152 134 164 165 154 140 136 151 111 142 135 123 135 144 137 131 147 134 140 136 133 138 134 125 107 119 129 131 126 124 126 122 108 116 104 160 156
160 155 174 165 131 163 162 141 131 155 137 144 150 130 143 135 142 152 159 125 147 157 145 144 139 147 144 147 119 130 145 142 141 140 133 132 99 115 116 131 133 132 136
146 165 172 157 163 157 142 133 140 151 142 157 147 152 153 143 134 139 146 146 163 146 154 145 130 130 150 159 163 147 122 152 145 134 134 143 150 145 141 144 136 137 126
162 167 166 173 157 143 131 167 142 169 175 144 163 145 156 132 145 169 151 149 140 153 150 169 141 137 153 146 133 156 137 141 152 161 132 161 148 154 143 148 143 144 149
170 163 161 162 164 170 160 165 154 132 139 164 141 155 135 137 145 181 143 157 178 148 145 148 133 137 155 149 141 112 132 159 145 141 153 139 133 132 165 159 138 135 135
172 170 167 163 163 162 160 163 141 145 169 155 150 172 135 141 136 138 173 154 142 155 139 140 142 155 145 147 161 140 186 109 144 130 175 159 140 143 128 153 164 143 149
187 191 187 176 169 166 164 162 164 167 165 163 167 142 156 137 166 171 162 152 178 150 161 151 142 141 174 149 147 139 151 145 147 144 143 165 135 146 141 153 130 152 140
207 212 212 209 186 175 176 177 172 169 166 168 167 170 172 168 168 169 167 170 164 173 174 178 148 148 153 143 162 181 143 146 149 137 179 174 149 149 157 179 149 129 147
185 185 197 200 200 198 197 200 202 202 172 171 165 174 174 172 203 184 181 177 172 178 180 176 177 173 176 180 176 185 182 180 180 179 183 138 178 184 150 145 151 187 145
161 168 177 180 185 189 193 196 197 200 201 202 201 201 206 210 213 211 215 208 199 216 223 206 226 229 216 222 195 178 172 172 170 184 177 169 172 174 142 177 183 188 188
160 158 149 165 167 163 172 182 184 187 187 191 196 202 202 200 200 198 201 199 202 206 210 214 219 202 201 209 234 240 216 194 208 213 216 197 217 223 203 216 218 222 222
178 167 163 161 161 164 173 169 165 167 169 183 194 195 194 191 193 195 201 200 195 192 194 193 195 203 212 220 209 202 215 219 215 225 189 225 249 202 202 201 202 206 208
167 180 170 187 193 170 165 161 165 188 186 175 169 170 174 173 191 192 193 195 195 195 202 207 201 194 191 189 194 196 199 195 200 208 209 214 219 226 231 235 243 251 255
158 191 190 170 167 192 194 195 145 105 193 194 190 185 184 185 178 177 168 164 171 185 192 194 194 196 202 198 197 195 191 192 192 187 191 197 208 194 192 209 216 217 223
Wind_Speed
32 29 32 31 37 33 33 31 35 38 37 32 29 34 47 43 53 35 38 32 51 62 35 51 34 47 48 42 48 36 50 43 38 44 44 46 37 40 37 37 37 42 40
34 35 38 41 40 40 38 36 41 38 44 50 38 32 44 36 42 57 55 36 42 66 50 40 46 55 48 38 42 47 46 24 41 43 44 42 39 47 33 39 51 50 46
43 41 44 43 42 42 42 40 41 48 41 41 41 40 52 40 62 52 61 68 42 39 51 48 52 46 46 42 45 53 51 55 57 56 44 43 41 44 45 46 42 46 48
45 48 47 47 46 45 45 44 44 43 43 43 43 47 47 46 46 48 49 61 59 56 49 47 65 54 59 50 53 46 45 50 46 48 49 53 46 48 44 45 46 54 50
51 50 53 51 48 48 49 50 47 49 49 47 47 47 49 56 53 70 65 69 40 64 52 73 50 56 69 60 47 65 48 49 49 65 60 56 49 57 53 55 61 57 52
53 52 56 53 54 56 53 52 52 54 53 53 54 48 49 50 48 71 57 74 59 60 41 53 68 64 48 63 68 52 50 53 53 57 61 53 52 56 60 54 71 49 50
53 55 57 59 56 60 54 57 54 56 55 56 55 54 55 55 52 65 61 54 83 63 76 55 56 76 77 62 61 58 75 67 55 68 56 52 63 57 53 52 52 59 56
64 62 54 56 63 62 55 64 64 61 61 59 59 58 61 58 57 58 66 64 60 80 69 59 75 67 58 74 80 84 66 71 87 82 77 73 81 76 77 73 66 63 53
68 65 68 68 55 69 61 68 65 57 61 63 65 64 65 64 61 65 61 63 64 63 68 60 60 61 65 86 71 81 71 61 70 67 56 65 55 55 64 77 88 84 77
68 64 74 65 58 65 69 68 65 64 71 72 71 67 69 68 66 69 66 64 66 65 68 67 65 79 69 79 67 66 81 58 56 62 79 79 80 88 89 85 93 85 83
67 70 70 70 70 69 69 72 69 66 77 72 76 71 68 72 74 72 73 74 74 72 71 72 70 68 69 70 78 78 68 64 66 60 64 62 61 61 62 80 75 89 86
72 81 81 72 78 72 76 79 74 82 80 74 73 79 78 80 80 71 79 77 81 81 80 79 79 73 76 76 72 69 74 79 78 73 75 67 69 81 84 83 63 64 67
70 74 75 77 82 80 81 82 78 85 84 83 82 80 73 77 78 74 79 86 85 79 89 81 85 85 85 86 83 81 72 74 78 79 75 75 76 72 66 66 62 84 87
73 79 77 80 81 81 78 89 82 84 88 87 94 79 88 84 86 89 88 77 92 92 91 94 90 92 92 94 82 85 93 92 91 89 85 84 68 74 75 83 83 81 80
78 77 78 82 81 82 95 86 88 89 96 97 97 93 92 94 86 92 94 93 94 93 98 94 84 86 97 99 98 94 86 99 93 89 89 96 95 92 90 91 88 86 81
76 77 79 82 82 87 84 82 95 89 89 102 102 99 94 89 100 102 102 101 98 98 96 95 95 93 97 100 91 99 93 96 101 102 89 100 96 97 91 91 93 93 95
83 83 83 84 84 86 83 89 102 91 96 104 102 109 98 98 98 99 107 108 106 108 107 98 95 97 111 105 100 89 95 107 100 96 103 94 89 93 101 99 91 90 90
85 87 88 88 88 89 91 94 96 100 98 108 103 105 100 106 101 95 106 112 109 117 108 108 104 112 105 106 114 102 109 90 104 93 110 110 97 101 92 100 104 97 97
78 87 94 96 96 96 97 98 100 102 102 103 107 104 126 102 109 107 116 113 113 122 117 123 116 113 113 118 118 109 115 113 111 108 106 113 98 106 105 110 95 103 97
60 61 66 73 90 99 102 105 105 106 106 108 108 111 114 115 114 114 114 117 116 117 119 122 123 119 122 122 126 120 116 119 122 108 119 119 120 103 118 114 114 98 103
68 72 68 73 77 84 91 91 91 96 111 112 109 118 118 119 116 123 122 121 120 122 123 122 122 123 124 123 123 127 126 125 125 121 121 106 118 118 118 116 121 115 115
75 77 79 82 83 84 86 88 90 91 93 95 98 102 98 97 97 100 101 113 119 108 102 124 107 108 115 110 127 124 123 122 121 124 120 120 121 116 110 119 121 121 120
83 85 88 88 90 92 93 94 97 98 100 100 98 96 98 102 104 106 105 108 107 105 107 106 104 120 122 120 104 102 118 123 121 114 112 126 110 106 112 111 109 105 104
86 92 93 94 94 96 99 100 100 101 103 104 105 106 108 109 109 108 106 108 112 113 113 114 113 109 105 102 110 120 111 108 108 106 119 103 90 114 114 113 112 110 107
90 92 92 94 96 102 103 102 103 106 109 110 109 110 112 111 113 114 113 113 114 115 114 112 115 118 118 119 114 114 112 113 110 105 104 102 99 93 91 91 87 86 86
84 97 99 104 105 104 107 109 85 60 112 113 115 116 117 115 116 116 115 114 116 119 120 121 120 118 117 119 119 119 118 116 115 115 112 110 107 105 104 100 98 96 94
Wind_Direction
238 266 276 253 227 261 232 267 224 218 237 244 268 237 227 234 229 243 243 243 240 228 243 238 243 247 244 243 247 253 241 247 240 250 252 255 242 253 255 254 256 272 257
271 272 273 243 223 230 269 259 218 280 219 219 234 267 234 243 241 232 232 239 245 233 242 245 244 242 247 240 244 244 245 258 241 248 253 244 243 255 259 248 268 273 269
230 267 232 227 238 233 228 245 238 221 273 228 238 239 229 239 230 238 234 235 247 241 247 247 245 243 245 243 243 251 249 253 257 259 249 248 259 249 261 263 260 262 271
235 231 229 229 232 232 235 234 236 240 237 251 239 229 236 241 241 242 248 238 241 245 243 244 242 248 245 246 248 244 243 251 244 248 255 258 258 253 256 254 261 269 268
233 234 232 229 232 238 236 228 244 232 234 243 248 247 236 232 239 232 237 239 263 243 246 243 247 249 246 248 247 250 246 248 249 261 258 256 256 262 262 269 270 268 267
241 239 234 240 233 233 235 237 237 231 235 235 233 265 251 246 253 231 240 236 243 245 267 247 246 248 249 251 250 248 250 250 250 257 259 256 257 261 265 262 272 265 269
248 238 238 238 241 236 240 237 241 239 240 238 239 246 246 248 255 238 239 252 236 246 243 254 255 249 249 253 253 253 254 255 257 263 255 258 262 259 258 261 263 268 267
239 245 246 243 242 239 244 240 238 241 241 241 242 248 239 248 251 251 240 244 248 240 248 253 249 253 255 252 252 251 253 257 255 256 260 262 261 264 263 269 270 269 264
240 232 247 248 249 241 248 242 243 247 247 244 243 244 243 246 254 245 252 250 248 251 249 257 257 256 256 252 255 255 254 257 255 258 255 263 258 260 267 267 270 268 274
246 249 242 256 249 249 241 249 257 255 242 246 243 247 245 248 250 245 253 261 255 254 254 253 255 249 255 253 258 258 256 262 260 258 259 261 264 264 266 268 270 270 273
244 247 249 250 250 255 244 247 253 249 244 249 244 246 253 248 248 251 252 252 251 252 255 255 257 257 257 257 255 255 259 258 258 264 261 260 260 261 262 266 267 270 270
248 241 237 247 251 252 243 251 256 245 251 252 252 250 249 247 250 254 251 254 253 255 254 255 255 259 257 256 258 260 259 260 259 259 260 262 263 262 265 266 263 266 268
246 244 254 248 243 254 245 255 249 244 243 254 255 247 253 251 253 252 255 251 254 255 254 255 255 256 257 256 257 258 260 262 262 262 260 262 263 264 264 263 266 267 267
245 242 250 246 253 251 250 248 256 245 256 251 246 258 253 257 256 251 251 257 250 253 254 254 257 254 255 255 261 260 256 258 260 260 263 263 261 263 263 265 265 266 268
242 247 251 248 250 249 244 253 254 255 253 243 249 248 252 254 257 259 254 254 253 255 253 256 257 257 257 256 255 258 259 258 260 262 263 262 260 260 262 262 265 265 266
253 253 252 251 252 251 251 255 246 250 256 252 249 253 255 261 257 257 250 253 260 253 258 259 259 260 258 261 260 258 257 261 262 261 260 262 262 261 262 261 261 261 262
251 253 252 251 252 256 254 258 245 257 260 251 256 248 259 258 263 261 260 253 259 255 259 258 261 260 257 260 263 266 260 262 262 261 262 261 259 261 260 262 262 261 262
251 252 254 255 255 254 254 255 248 254 257 247 256 257 259 258 261 263 256 258 262 254 262 262 261 260 260 264 256 264 268 265 264 259 262 262 261 262 260 265 260 264 267
255 252 252 254 255 256 256 256 256 256 255 253 253 257 251 262 260 262 255 261 262 257 260 256 260 264 263 263 264 266 260 264 265 267 267 265 261 265 263 264 259 266 263
259 259 258 258 257 257 257 257 258 259 259 259 259 259 260 260 261 260 259 260 259 261 261 261 259 261 262 263 260 264 266 265 262 263 265 263 268 264 265 267 267 265 265
261 259 262 261 260 259 258 257 258 258 259 259 261 260 261 262 261 262 261 261 261 261 260 260 260 260 261 262 263 265 264 264 266 267 270 267 267 266 265 270 267 269 268
262 262 261 260 260 260 261 260 259 259 259 259 259 259 260 260 261 261 261 260 262 261 263 262 263 263 264 264 263 263 264 264 265 267 267 265 267 267 267 268 270 270 270
265 263 263 262 261 260 260 260 260 260 261 260 259 259 259 259 259 260 259 259 260 262 262 263 262 262 263 263 263 263 263 265 264 264 265 265 266 266 266 267 267 268 268
267 267 267 266 266 265 265 264 264 263 263 262 260 259 260 260 259 259 259 259 260 260 260 261 261 262 262 260 263 264 263 263 263 264 265 264 266 265 265 265 266 266 266
271 269 266 268 268 268 268 268 267 262 261 264 265 265 265 265 262 262 262 261 261 262 260 259 260 261 262 263 263 264 264 265 265 265 265 265 264 263 263 263 265 266 266
274 271 269 270 269 266 266 266 268 272 264 264 263 263 263 264 265 265 266 265 265 264 262 262 262 261 260 262 263 263 264 265 265 266 267 267 265 265 265 264 263 265 265